www.pogodaiklimat.ru

Погода и климат >> Архив погоды >> Россия >> Костромская область >> Чухлома


ПОГОДА в Чухломе

  • Прогноз погоды в Чухломе
  • Монитор погоды в Чухломе

АРХИВ ПОГОДЫ в Чухломе

Время (UTC), дата Ветер
(напр.,м/с)
 
Видим.   Явления Облачность Т
(С)
Тd
(С)
f
(%)
Тe
(С)
Тes
(С)
Комфортность P
(гПа)
Po
(гПа)
Тmin
(С)
Tmax
(С)
R
(мм)
R24
(мм)
S
(см)
03 10.07 З 2 4000 м дождь 10/10 300 м
[Frnb Ns]
+11.6 +10.6 94 +10 +10 992.1 972.6 +11.6 16
06 10.07 З 3 4000 м дождь 10/10 300 м
[Frnb Ns]
+12.7 +11.8 94 +11 +11 990.5 971.2 +11.5
09 10.07 З 3 10 км слаб. дождь 10/10 300 м
[Frnb Ns]
+14.0 +12.8 92 +13 +13 990.6 971.4
12 10.07 СЗ 5
{11}
10 км слаб. дождь 10/10 300 м
[Frnb Ns]
+13.3 +11.6 89 +11 +11 993.2 973.8
15 10.07 С 3
{10}
10 км слаб. дождь 10/10 300 м
[Frnb Ns]
+12.7 +11.1 90 +11 +11 995.1 975.6 +14.6 11
18 10.07 СЗ 2 10 км {дождь} 10/0
[Ac und]
+12.4 +10.1 86 +11 +11 996.6 977.1
21 10.07 С 2 10 км 10/0
[Ac und]
+11.1 +8.3 83 +10 +10 997.9 978.1
00 11.07 С 2 10 км 10/8 300 м
[Cb cap Ac trans]
+9.8 +7.6 86 +8 +8 998.5 978.8
03 11.07 СЗ 3 10 км 10/10 300 м
[Cb cap]
+8.4 +6.4 87 +6 +6 999.9 979.9 +8.4 1
06 11.07 СЗ 3 10 км 10/10 300 м
[Sc diur, vesp]
+9.8 +6.3 79 +8 +8 1000.7 980.9 +8.3
09 11.07 СЗ 2 10 км 10/10 300 м
[Cb cap]
+11.4 +5.3 66 +10 +10 1001.9 982.2
12 11.07 СЗ 3 10 км 10/10 300 м
[Cb cap]
+12.7 +5.8 63 +11 +11 1002.7 982.9
15 11.07 С 1 10 км 8/0
[Ac trans]
+12.6 +6.2 65 +13 +14 1003.5 983.7 +14.8
18 11.07 штиль 0 10 км 8/0
[Ac trans]
+11.1 +6.9 75 +11 +11 1004.1 984.3
21 11.07 штиль 0 10 км 6/0
[Ac trans]
+8.0 +6.7 91 +7 +7 1004.5 984.5
00 12.07 Ю 1 10 км 8/0
[Ac trans]
+6.4 +5.4 93 +5 +5 1004.8 984.7
03 12.07 ЮЗ 1 10 км 10/0
[Ac und]
+7.3 +6.2 93 +6 +7 1005.4 985.2 +5.5
06 12.07 З 1 10 км 8/0
[Ac As]
+13.7 +6.7 63 +14 +19 1005.5 985.9
09 12.07 З 1 10 км 8/3 300 м
[Cb cap Ac trans]
+14.0 +6.0 59 +14 +21 1006.5 986.9
12 12.07 СЗ 2 10 км 5/3 300 м
[Cb cap Ac trans]
+15.1 +6.1 55 +15 +21 1007.3 987.7
15 12.07 З 1 10 км 8/5 300 м
[Cb cap Ac trans]
+15.2 +5.3 52 +16 +17 1007.7 988.2 +16.7
18 12.07 Ю 1 10 км 8/3 300 м
[Cb cap Ac trans]
+12.6 +7.5 71 +13 +13 1008.7 988.9
21 12.07 ЮВ 2 10 км 3/0
[Ac trans]
+7.3 +6.1 92 +5 +5 1009.1 988.9
00 13.07 штиль 0 10 км ясно +5.6 +4.7 94 +4 +4 1009.1 988.8
03 13.07 штиль 0 500 м туман ?/? +10.0 +8.8 92 +9 +9 1008.4 988.5 +4.7
06 13.07 В 1 4000 м в посл. час туман 4/4 300 м
[St]
+16.3 +8.0 58 +17 +24 1007.8 988.3
09 13.07 С 1 10 км 8/6 300 м
[Cb cap Ac trans]
+17.3 +7.3 52 +18 +23 1007.5 988.1
12 13.07 СЗ 1 10 км 10/10 300 м
[Cb cap]
+17.0 +7.8 55 +18 +18 1007.8 988.3
15 13.07 ЮЗ 1 10 км 8/8 300 м
[Cb cap]
+16.9 +6.7 51 +18 +18 1008.3 988.8 +18.3
18 13.07 штиль 0 10 км 8/0
[Ac As]
+12.7 +9.1 79 +12 +12 1009.2 989.5
21 13.07 ЮВ 1 10 км 6/0
[Ac As]
+8.3 +7.2 93 +7 +7 1009.8 989.7
00 14.07 ЮВ 1 10 км 6/0
[Ac As]
+6.5 +5.6 94 +5 +5 1010.5 990.3
03 14.07 штиль 0 10 км 3/0
[Ac trans]
+11.2 +9.9 92 +10 +13 1010.5 990.5 +6.2
06 14.07 СЗ 1 10 км 1/1 600 м
[Cu hum]
+16.9 +8.2 56 +18 +27 1010.0 990.5
09 14.07 СЗ 2 10 км 6/6 300 м
[Cb cap]
+18.8 +7.6 48 +20 +25 1009.8 990.5
12 14.07 штиль 0 10 км 6/6 300 м
[Cb cap]
+20.0 +6.2 41 +21 +26 комфорт 1009.5 990.2
15 14.07 З 1 10 км 8/3 300 м
[Cb cap Ac trans]
+19.4 +8.6 50 +21 +22 комфорт 1009.7 990.4 +21.5
18 14.07 ЮВ 1 10 км 1/0
[Ac trans]
+13.5 +10.9 84 +14 +14 1010.4 990.7
21 14.07 ЮВ 1 10 км 8/0
[Ac trans]
+9.9 +8.7 92 +9 +9 1010.7 990.8
00 15.07 ЮЗ 1 10 км 4/0
[Ac trans]
+7.6 +6.6 93 +7 +7 1011.1 990.9
03 15.07 штиль 0 10 км 1/0
[Ac trans]
+13.8 +10.2 79 +13 +16 1010.8 991.0 +7.5
06 15.07 СЗ 2 10 км ясно +17.4 +11.3 67 +18 +27 1010.2 990.8
09 15.07 СЗ 3 10 км 6/6 300 м
[Cu med, cong]
+20.2 +10.8 55 +22 +27 комфорт 1009.4 990.1
12 15.07 СЗ 1 10 км 6/6 300 м
[Cu hum]
+20.3 +7.9 45 +23 +27 комфорт 1009.2 990.0
15 15.07 З 2 10 км 8/8 300 м
[Cb cap]
+18.0 +12.2 69 +19 +19 1009.4 990.0 +21.6
18 15.07 З 1 10 км в посл. час гроза {ливн. осадки} 6/6 300 м
[Cb calv]
+12.4 +10.9 91 +12 +12 1010.4 990.6
21 15.07 Ю 1 10 км {ливн. осадки} ясно +9.6 +8.5 93 +9 +9 1010.1 990.1
00 16.07 ЮЗ 1 10 км {ливн. осадки} 6/0
[Ci fib]
+8.3 +7.4 94 +7 +7 1011.2 991.1
03 16.07 ЮЗ 1 10 км ясно +11.9 +10.6 92 +12 +14 1011.3 991.3 +7.6 4
06 16.07 СЗ 1 10 км 3/0
[Ac trans]
+17.7 +11.7 68 +19 +27 1011.4 992.0
09 16.07 З 1 10 км 6/6 300 м
[Cb cap]
+19.6 +9.1 51 +22 +28 комфорт 1011.5 992.2
12 16.07 СЗ 1 10 км 6/6 300 м
[Cb cap]
+21.0 +8.3 44 +23 +28 комфорт 1011.7 992.4
15 16.07 С 1 10 км 4/3 300 м
[Cb cap Ac trans]
+20.9 +8.5 45 +23 +25 комфорт 1011.5 992.2 +23.1
18 16.07 ЮВ 1 10 км 5/0
[Ac trans]
+14.4 +11.8 84 +15 +15 1012.5 992.8
21 16.07 ЮВ 1 10 км 3/0
[Ac trans]
+10.7 +9.1 90 +10 +10 1013.0 993.1
00 17.07 ЮВ 1 10 км 8/8 300 м
[Cb calv]
+12.1 +9.6 85 +12 +12 1013.1 993.2

 

Местоположение метеостанции Чухлома (Костромская область, Россия): широта 58.75 долгота 42.67 высота над уровнем моря 166 м.

В архиве по умолчанию представлена погода в Чухломе за последнюю неделю. Архивные данные за месяц целиком и за предыдущие месяцы, начиная с января 2011 года, Вы можете получить, выбрав интересующий диапазон дат из раскрывающегося списка и нажав кнопку "Ввод!".


*Определитесь, кто Вы:
робот инопланетянин человек

Внимание! Время в таблицах - всемирное. Для получения местного времени необходимо прибавить поправку, которая равна 3 ч.

Смотрите также архив погоды в соседних городах и на ближайших метеорологических станциях:

Погода в Галиче (Костромская область, Россия) (45 км)
Погода в Николо-Поломе (Костромская область, Россия) (61 км)
Погода в Буе (Костромская область, Россия) (73 км)
Погода в Кологриве (Костромская область, Россия) (95 км)
Погода в Макарьеве (Костромская область, Россия) (114 км)
Погода в Тотьме (Вологодская область, Россия) (126 км)
Погода в Мантурово (Костромская область, Россия) (131 км)
Погода в Кинешме (Ивановская область, Россия) (151 км)
Погода в Данилове (Ярославская область, Россия) (157 км)
Погода в Костроме (Костромская область, Россия) (158 км)

Пояснения к столбцам:

Ветер - указаны скорость ветра в м/с - средняя за 10 мин, порывы в срок и между сроками (в фигурных скобках) и направление, откуда дует ветер: С - северный, СВ - северо-восточный, В - восточный, ЮВ - юго-восточный, Ю - южный, ЮЗ - юго-западный, З - западный, СЗ - северо-западный.
Видимость - горизонтальная дальность видимости в метрах или километрах. При видимости от 1 до 10 км при отсутствии осадков обычно наблюдается дымка, при ухудшении видимости до 1 км и менее - туман. В сухую погоду видимость может ухудшаться дымом, пылью или мглою.
Явления - указаны атмосферные явления, наблюдавшиеся в срок или в последний час перед сроком; фигурными скобками обозначены явления, наблюдавшиеся между сроками (за 1-3 часа до срока); квадратными скобками обозначены град или гололедные отложения с указанием их диаметра в мм.
Облачность - указаны через наклонную черту общая и нижняя облачность в баллах и высота нижней границы облаков в метрах; квадратными скобками обозначены формы облаков: Ci - перистые, Cs - перисто-слоистые, Cc - перисто-кучевые, Ac - высококучевые, As - высокослоистые, Sc - слоисто-кучевые, Ns - слоисто-дождевые, Cu - кучевые, Cb - кучево-дождевые. Подробнее классификацию облаков см. в Атласе облаков (PDF).
T - Температура воздуха - температура, измеренная на высоте 2 м над землей.
Td - Температура точки росы - температура, при понижении до которой содержащийся в воздухе водяной пар достигнет насыщения.
f - Относительная влажность воздуха - влажноcть воздуха, измеренная на высоте 2 м над землей.
Te - Эффективная температура - температура, которую ощущает одетый по сезону человек в тени. Характеристика душности погоды. При расчете учитывается влияние влажности воздуха и скорости ветра на теплоощущения человека.
Tes - Эффективная температура на солнце - температура, которую ощущает человек, с поправкой на солнечный нагрев. Характеристика знойности погоды. Зависит от высоты солнца над горизонтом, облачности и скорости ветра. Ночью, в пасмурную погоду, а также при ветре 12 м/с и более поправка равна нулю.
P - Атмосферное давление - приведенное к уровню моря атмосферное давление.
Po - Атмосферное давление - измеренное на уровне метеостанции атмосферное давление.
Tmin - Минимальная температура - минимум температуры воздуха на высоте 2 м над землей.
Tmax - Максимальная температура - максимум температуры воздуха на высоте 2 м над землей.
R - Количество осадков - Количество выпавших осадков за период времени, мм. При наведении курсора мыши на число - период времени, за который выпало указанное количество осадков.
R24 - Количество осадков - Количество выпавших осадков за 24 часа, мм.
S - Снежный покров - Высота снежного покрова, см. При наведении курсора мыши на число - состояние снежного покрова и степень покрытия местности в баллах.